MEASAT 3D

Last updated on Mon Dec 15 2025 00:02:57 GMT+0000 (Coordinated Universal Time)

1 52904U 22067B 25348.29171691 -.00000224 00000+0 00000+0 0 9992 2 52904 0.0354 319.5864 0003248 336.2822 343.8696 1.00272660 12795
UTC large
Height (km)
Speed (km/s)
/
Latitude / Longitude
Inclination (degrees)
Orbital Period (minutes)
Azimuth
Elevation
Range (km)
Doppler Factor

Next 0 passes for location: London (51.5072 / 0.1276)

Sorry there are no passes over London.